Weather reports worldwide

Advertisment
Chillingham Barns, United Kingdom (99196): temperature & dewpoint: 19.09.2018 22:00:00 - 25.09.2018 22:00:00 (BST)Chillingham Barns, United Kingdom (99196): precipitation: 19.09.2018 22:00:00 - 25.09.2018 22:00:00 (BST)
Date & Time tt [°C] td [°C] rr [mm]
25.09.2018 22:00:00 12,8 9,2 0,0
25.09.2018 21:00:00 12,5 8,6 0,0
25.09.2018 20:00:00 13,0 7,8 0,0
25.09.2018 19:00:00 13,0 7,2 0,0
25.09.2018 18:00:00 13,2 6,4 0,0
25.09.2018 17:00:00 13,7 6,6 0,0
25.09.2018 16:00:00 13,7 6,5 0,0
25.09.2018 15:00:00 13,5 6,0 0,0
25.09.2018 14:00:00 13,4 5,5 0,0
25.09.2018 13:00:00 13,1 5,8 0,0
25.09.2018 12:00:00 13,5 7,3 0,0
25.09.2018 11:00:00 11,5 7,3 0,0
25.09.2018 10:00:00 9,2 6,0 0,0
25.09.2018 09:00:00 8,8 6,1 0,0
25.09.2018 08:00:00 7,8 6,1 0,0
25.09.2018 07:00:00 7,2 5,4 0,0
25.09.2018 06:00:00 7,6 5,8 0,0
25.09.2018 05:00:00 7,2 5,1 0,0
25.09.2018 04:00:00 7,9 5,2 0,0
25.09.2018 03:00:00 8,3 5,1 0,0
25.09.2018 02:00:00 8,2 5,1 0,0
25.09.2018 01:00:00 9,3 5,9 0,0
25.09.2018 00:00:00 9,7 6,2 0,0
24.09.2018 23:00:00 8,7 5,8 0,0
24.09.2018 22:00:00 8,2 5,4 0,0
24.09.2018 21:00:00 8,7 5,5 0,0
24.09.2018 20:00:00 10,2 6,8 0,0
24.09.2018 19:00:00 10,1 4,4 0,0
24.09.2018 18:00:00 12,4 5,4 0,0
24.09.2018 17:00:00 12,9 4,4 0,0
24.09.2018 16:00:00 14,0 4,3 0,0
24.09.2018 15:00:00 15,0 5,2 0,0
24.09.2018 14:00:00 14,8 4,5 0,0
24.09.2018 13:00:00 14,5 5,2 0,0
24.09.2018 12:00:00 12,7 5,3 0,0
24.09.2018 11:00:00 12,3 5,3 0,0
24.09.2018 10:00:00 10,2 5,0 0,0
24.09.2018 09:00:00 8,2 4,3 0,0
24.09.2018 08:00:00 6,3 3,3 0,0
24.09.2018 07:00:00 6,0 2,7 0,0
24.09.2018 06:00:00 5,3 2,3 0,0
24.09.2018 05:00:00 4,5 1,8 0,0
24.09.2018 04:00:00 4,0 2,0 0,0
24.09.2018 03:00:00 4,3 2,1 0,0
24.09.2018 02:00:00 5,2 2,3 0,0
24.09.2018 01:00:00 5,5 3,1 0,0
24.09.2018 00:00:00 6,6 3,5 0,0
23.09.2018 23:00:00 7,4 4,4 0,0
23.09.2018 22:00:00 7,3 4,2 0,0
23.09.2018 21:00:00 8,5 4,5 0,0
23.09.2018 20:00:00 8,4 3,5 0,0
23.09.2018 19:00:00 9,0 3,2 0,0
23.09.2018 18:00:00 11,1 4,0 0,0
23.09.2018 17:00:00 11,2 3,4 0,0
23.09.2018 16:00:00 12,5 4,7 0,0
23.09.2018 15:00:00 11,7 4,0 0,0
23.09.2018 14:00:00 11,9 3,6 0,0
23.09.2018 13:00:00 11,4 3,3 0,0
23.09.2018 12:00:00 11,0 4,9 0,0
23.09.2018 11:00:00 10,3 4,7 0,0
23.09.2018 10:00:00 8,4 4,2 0,0
23.09.2018 09:00:00 5,4 3,3 0,0
23.09.2018 08:00:00 5,2 3,2 0,0
23.09.2018 07:00:00 4,8 3,6 0,0
23.09.2018 06:00:00 4,6 3,2 0,0
23.09.2018 05:00:00 4,4 3,0 0,0
23.09.2018 04:00:00 4,3 2,8 0,0
23.09.2018 03:00:00 5,0 3,1 0,0
23.09.2018 02:00:00 6,1 3,5 0,0
23.09.2018 01:00:00 6,3 3,3 0,0
23.09.2018 00:00:00 6,0 3,6 0,0
22.09.2018 23:00:00 5,2 2,4 0,0
22.09.2018 22:00:00 6,0 3,1 0,0
22.09.2018 21:00:00 5,6 2,1 0,0
22.09.2018 20:00:00 6,6 2,8 0,0
22.09.2018 19:00:00 9,5 3,2 0,0
22.09.2018 18:00:00 11,6 3,4 0,0
22.09.2018 17:00:00 12,1 3,2 0,0
22.09.2018 16:00:00 13,8 3,4 0,0
22.09.2018 15:00:00 13,0 2,0 0,0
22.09.2018 14:00:00 13,8 4,2 0,0
22.09.2018 13:00:00 13,1 5,4 0,0
22.09.2018 12:00:00 11,1 5,2 0,0
22.09.2018 11:00:00 10,2 4,9 0,0
22.09.2018 10:00:00 9,8 4,9 0,0
22.09.2018 09:00:00 9,0 5,0 0,0
22.09.2018 08:00:00 8,0 4,6 0,0
22.09.2018 07:00:00 7,2 4,0 0,0
22.09.2018 06:00:00 7,2 4,0 0,0
22.09.2018 05:00:00 7,6 3,8 0,0
22.09.2018 04:00:00 7,7 3,9 0,0
22.09.2018 03:00:00 7,8 4,0 0,0
22.09.2018 02:00:00 7,4 3,7 0,0
22.09.2018 01:00:00 8,2 4,3 0,0
22.09.2018 00:00:00 8,3 4,5 0,0
21.09.2018 23:00:00 8,5 5,3 0,0
21.09.2018 22:00:00 8,7 5,2 0,0
21.09.2018 21:00:00 8,5 5,2 0,0
21.09.2018 20:00:00 9,1 5,8 0,0
21.09.2018 19:00:00 8,8 6,7 0,0
21.09.2018 18:00:00 9,5 7,3 0,0
21.09.2018 17:00:00 9,0 7,4 1,6
21.09.2018 16:00:00 13,0 6,2 0,0
21.09.2018 15:00:00 14,0 6,9 0,0
21.09.2018 14:00:00 12,8 8,0 0,0
21.09.2018 13:00:00 12,8 6,8 0,0
21.09.2018 12:00:00 11,6 5,9 0,0
21.09.2018 11:00:00 10,2 6,1 0,0
21.09.2018 10:00:00 9,1 5,8 0,0
21.09.2018 09:00:00 8,1 5,3 0,0
21.09.2018 08:00:00 7,1 4,8 0,0
21.09.2018 07:00:00 6,4 4,3 0,0
21.09.2018 06:00:00 6,1 4,9 1,6
21.09.2018 05:00:00 6,4 5,7 1,8
21.09.2018 04:00:00 6,3 5,6 2,2
21.09.2018 03:00:00 6,6 5,6 7,0
21.09.2018 02:00:00 7,6 6,8 1,2
21.09.2018 01:00:00 7,7 7,1 5,4
21.09.2018 00:00:00 7,6 7,0 4,0
20.09.2018 23:00:00 7,5 7,1 3,6
20.09.2018 22:00:00 7,5 6,6 1,0
20.09.2018 21:00:00 8,2 6,3 0,4
20.09.2018 20:00:00 8,4 5,5 0,0
20.09.2018 19:00:00 8,6 6,3 0,6
20.09.2018 18:00:00 10,1 6,1 0,2
20.09.2018 17:00:00 11,5 5,6 0,0
20.09.2018 16:00:00 11,9 5,6 0,0
20.09.2018 15:00:00 12,4 5,5 0,0
20.09.2018 14:00:00 13,0 5,0 0,0
20.09.2018 13:00:00 13,6 5,1 0,0
20.09.2018 12:00:00 12,7 5,6 0,0
20.09.2018 11:00:00 11,6 5,1 0,0
20.09.2018 10:00:00 11,7 5,5 0,0
20.09.2018 09:00:00 10,4 5,1 0,0
20.09.2018 08:00:00 9,9 5,0 0,0
20.09.2018 07:00:00 9,1 4,7 0,0
20.09.2018 06:00:00 9,4 4,9 0,0
20.09.2018 05:00:00 9,7 5,0 0,0
20.09.2018 04:00:00 9,7 4,9 0,0
20.09.2018 03:00:00 9,9 4,4 0,0
20.09.2018 02:00:00 10,2 5,3 0,0
20.09.2018 01:00:00 10,3 4,5 0,0
20.09.2018 00:00:00 10,5 5,0 0,0
19.09.2018 23:00:00 10,9 3,6 0,0
19.09.2018 22:00:00 10,9 4,0 0,0

tt = temperature
td = dewpoint
rr = precipitation

Next stations